Inverness, United Kingdom

8:10 AM GMT on February 20, 2018 (GMT +0000)
Inverness

Weather History for EGPE - September, 2013

Change the Weather History Date:

Wednesday, September 11, 2013

  Actual Average Record
Temperature  
Mean Temperature 56 °F -  
Max Temperature 62 °F 56 °F 73 °F (2006)
Min Temperature 51 °F 44 °F 39 °F (2003)
Degree Days  
Heating Degree Days 8    
Growing Degree Days 6 (Base 50)    
Moisture  
Dew Point 53 °F    
Average Humidity 88    
Maximum Humidity 100    
Minimum Humidity 82    
Precipitation  
Precipitation 0.00 in - - ()
Sea Level Pressure  
Sea Level Pressure 30.11 in    
Wind  
Wind Speed 6 mph ()    
Max Wind Speed 10 mph    
Max Gust Speed -    
Visibility 5.9 miles    
Events Rain    
Averages and records for this station are not official NWS values.
T = Trace of Precipitation, MM = Missing Value Source: Averaged Metar Reports

Daily Weather History Graph

Daily Weather History Graph

Search for Another Location

Airport or City:

Trip Planner

Search our weather history database for the weather conditions in past years. The results will help you decide how hot, cold, wet, or windy it might be!

Date:

Astronomy

Sep. 11, 2013 Rise Set
Actual Time 6:38 AM BST 7:45 PM BST
Civil Twilight 5:58 AM BST 8:25 PM BST
Nautical Twilight 5:09 AM BST 9:14 PM BST
Astronomical Twilight 4:14 AM BST 10:08 PM BST
Moon 2:12 PM BST (9/11) 10:07 PM BST (9/11)
Length of Visible Light 14h 27m
Length of Day
13h 07m
Waxing Crescent, 36% of the Moon is Illuminated
Sep 11
Waxing Crescent
Sep 12
First Quarter
Sep 19
Full
Sep 27
Last Quarter
Oct 5
New

Hourly Weather History & Observations

Time (BST) Temp. Dew Point Humidity Pressure Visibility Wind Dir Wind Speed Gust Speed Precip Events Conditions
12:20 AM 55.4 °F 50.0 °F 82% 30.24 in 6.2 mi WSW 5.8 mph - N/A   Mostly Cloudy
12:50 AM 55.4 °F 50.0 °F 82% 30.24 in 6.2 mi WSW 6.9 mph - N/A   Mostly Cloudy
1:20 AM 53.6 °F 50.0 °F 88% 30.21 in 6.2 mi WSW 5.8 mph - N/A   Mostly Cloudy
1:50 AM 53.6 °F 50.0 °F 88% 30.21 in 6.2 mi WSW 8.1 mph - N/A   Mostly Cloudy
2:20 AM 55.4 °F 50.0 °F 82% 30.21 in 6.2 mi WSW 10.4 mph - N/A   Overcast
2:50 AM 55.4 °F 50.0 °F 82% 30.18 in 6.2 mi West 10.4 mph - N/A   Mostly Cloudy
3:20 AM 55.4 °F 50.0 °F 82% 30.18 in 6.2 mi West 10.4 mph - N/A   Mostly Cloudy
3:50 AM 55.4 °F 50.0 °F 82% 30.18 in 6.2 mi West 8.1 mph - N/A   Mostly Cloudy
4:20 AM 53.6 °F 50.0 °F 88% 30.15 in 6.2 mi SW 6.9 mph - N/A   Mostly Cloudy
4:50 AM 53.6 °F 50.0 °F 88% 30.15 in 6.2 mi SW 6.9 mph - N/A   Mostly Cloudy
5:20 AM 53.6 °F 50.0 °F 88% 30.12 in 6.2 mi WSW 8.1 mph - N/A   Scattered Clouds
5:50 AM 53.6 °F 50.0 °F 88% 30.12 in 6.2 mi SW 8.1 mph - N/A   Scattered Clouds
6:20 AM 53.6 °F 50.0 °F 88% 30.12 in 6.2 mi WSW 9.2 mph - N/A   Scattered Clouds
6:50 AM 53.6 °F 50.0 °F 88% 30.12 in 6.2 mi WSW 10.4 mph - N/A   Scattered Clouds
7:20 AM 53.6 °F 50.0 °F 88% 30.12 in 6.2 mi SW 8.1 mph - N/A   Scattered Clouds
7:50 AM 53.6 °F 51.8 °F 94% 30.12 in 6.2 mi WSW 9.2 mph - N/A   Scattered Clouds
8:20 AM 53.6 °F 51.8 °F 94% 30.12 in 6.2 mi SW 3.5 mph - N/A Rain Light Rain
8:50 AM 53.6 °F 51.8 °F 94% 30.12 in 3.7 mi WSW 4.6 mph - N/A Rain Rain
9:20 AM 53.6 °F 51.8 °F 94% 30.12 in 2.8 mi WSW 4.6 mph - N/A Rain Rain
9:50 AM 51.8 °F 51.8 °F 100% 30.12 in 2.8 mi WSW 4.6 mph - N/A Rain Rain
10:20 AM 53.6 °F 51.8 °F 94% 30.12 in 2.5 mi SW 4.6 mph - N/A Rain Light Rain
10:50 AM 55.4 °F 53.6 °F 94% 30.09 in 3.7 mi SW 6.9 mph - N/A Rain Light Rain
11:20 AM 55.4 °F 53.6 °F 94% 30.09 in 6.2 mi SW 9.2 mph - N/A Rain Light Rain
11:50 AM 57.2 °F 55.4 °F 94% 30.09 in 6.2 mi SW 9.2 mph - N/A   Mostly Cloudy
12:20 PM 59.0 °F 55.4 °F 88% 30.09 in 6.2 mi WSW 8.1 mph - N/A   Mostly Cloudy
12:50 PM 59.0 °F 55.4 °F 88% 30.09 in 6.2 mi SW 8.1 mph - N/A   Mostly Cloudy
1:20 PM 59.0 °F 55.4 °F 88% 30.06 in 6.2 mi WSW 9.2 mph - N/A   Mostly Cloudy
1:50 PM 60.8 °F 55.4 °F 82% 30.06 in 6.2 mi SW 10.4 mph - N/A   Mostly Cloudy
2:20 PM 62.6 °F 57.2 °F 82% 30.06 in 6.2 mi WSW 8.1 mph - N/A   Mostly Cloudy
2:50 PM 62.6 °F 57.2 °F 82% 30.06 in 6.2 mi WSW 8.1 mph - N/A   Mostly Cloudy
3:20 PM 62.6 °F 57.2 °F 82% 30.06 in 6.2 mi SW 8.1 mph - N/A   Mostly Cloudy
3:50 PM 62.6 °F 57.2 °F 82% 30.06 in 6.2 mi WSW 8.1 mph - N/A   Mostly Cloudy
4:20 PM 62.6 °F 57.2 °F 82% 30.06 in 6.2 mi WSW 6.9 mph - N/A   Mostly Cloudy
4:50 PM 62.6 °F 57.2 °F 82% 30.06 in 6.2 mi West 5.8 mph - N/A   Mostly Cloudy
5:20 PM 62.6 °F 59.0 °F 88% 30.06 in 6.2 mi Variable 3.5 mph - N/A   Mostly Cloudy
5:50 PM 62.6 °F 59.0 °F 88% 30.06 in 6.2 mi SW 3.5 mph - N/A   Mostly Cloudy
6:20 PM 62.6 °F 57.2 °F 82% 30.06 in 6.2 mi West 4.6 mph - N/A   Mostly Cloudy
6:50 PM 62.6 °F 57.2 °F 82% 30.06 in 6.2 mi West 5.8 mph - N/A   Mostly Cloudy
7:20 PM 62.6 °F 57.2 °F 82% 30.06 in 6.2 mi West 4.6 mph - N/A   Mostly Cloudy
7:50 PM 60.8 °F 55.4 °F 82% 30.06 in 6.2 mi Variable 3.5 mph - N/A   Mostly Cloudy
8:20 PM 59.0 °F 55.4 °F 88% 30.06 in 6.2 mi East 4.6 mph - N/A   Scattered Clouds
8:50 PM 57.2 °F 53.6 °F 88% 30.06 in 6.2 mi East 2.3 mph - N/A   Scattered Clouds
9:20 PM 53.6 °F 51.8 °F 94% 30.09 in 6.2 mi East 3.5 mph - N/A   Scattered Clouds
9:50 PM 53.6 °F 51.8 °F 94% 30.09 in 6.2 mi ESE 5.8 mph - N/A   Scattered Clouds
10:20 PM 53.6 °F 51.8 °F 94% 30.09 in 6.2 mi ESE 4.6 mph - N/A   Mostly Cloudy
10:50 PM 53.6 °F 53.6 °F 100% 30.09 in 6.2 mi ESE 4.6 mph - N/A   Overcast
11:20 PM 55.4 °F 53.6 °F 94% 30.09 in 6.2 mi ESE 3.5 mph - N/A   Mostly Cloudy
11:50 PM 55.4 °F 51.8 °F 88% 30.06 in 6.2 mi SE 3.5 mph - N/A   Mostly Cloudy